Cleveland, OH

10:46 AM EST on February 24, 2017 (GMT -0500)
Cleveland-Hopkins International

Weather History for KCLE - April, 2013

Change the Weather History Date:

Friday, April 12, 2013

  Actual Average Record
Temperature  
Mean Temperature 45 °F 48 °F  
Max Temperature 48 °F 58 °F 82 °F (1977)
Min Temperature 41 °F 39 °F 20 °F (1939)
Degree Days  
Heating Degree Days 20 17  
Month to date heating degree days 235 226  
Since 1 July heating degree days 5374 5269  
Cooling Degree Days 0 0  
Month to date cooling degree days 0 0  
Year to date cooling degree days 0 1  
Moisture  
Dew Point 39 °F    
Average Humidity 85    
Maximum Humidity 100    
Minimum Humidity 70    
Precipitation  
Precipitation 0.29 in 0.13 in 1.08 in (1997)
Month to date precipitation 2.03 1.47  
Year to date precipitation 8.75 9.46  
Snow  
Snow 0.00 in 0.10 in - ()
Month to date snowfall 0.2 2.2  
Since 1 July snowfall 51.6 67.0  
Snow Depth 0.00 in    
Sea Level Pressure  
Sea Level Pressure 29.63 in    
Wind  
Wind Speed 12 mph (WSW)    
Max Wind Speed 26 mph    
Max Gust Speed 33 mph    
Visibility 6 miles    
Events Rain , Thunderstorm    
T = Trace of Precipitation, MM = Missing Value Source: NWS Daily Summary

Daily Weather History Graph

Daily Weather History Graph

Search for Another Location

Airport or City:

Trip Planner

Search our weather history database for the weather conditions in past years. The results will help you decide how hot, cold, wet, or windy it might be!

Date:

Astronomy

Apr. 12, 2013 Rise Set
Actual Time 6:52 AM EDT 8:04 PM EDT
Civil Twilight 6:23 AM EDT 8:33 PM EDT
Nautical Twilight 5:49 AM EDT 9:07 PM EDT
Astronomical Twilight 5:13 AM EDT 9:43 PM EDT
Moon 7:59 AM EDT (4/12) 10:36 PM EDT (4/12)
Length of Visible Light 14h 09m
Length of Day
13h 12m
Waxing Crescent, 5% of the Moon is Illuminated
Apr 12
Waxing Crescent
Apr 18
First Quarter
Apr 25
Full
May 2
Last Quarter
May 9
New

Hourly Weather History & Observations

Time (EDT) Temp. Windchill Dew Point Humidity Pressure Visibility Wind Dir Wind Speed Gust Speed Precip Events Conditions
12:04 AM 39.9 °F 32.9 °F 39.0 °F 97% 29.65 in 3.0 mi WSW 11.5 mph - 0.02 in Rain , Thunderstorm Thunderstorms and Rain
12:15 AM 39.9 °F 36.7 °F 39.0 °F 97% 29.65 in 4.0 mi NNW 4.6 mph - 0.05 in Rain Light Rain
12:51 AM 41.0 °F 35.8 °F 39.0 °F 93% 29.63 in 9.0 mi ENE 8.1 mph - 0.08 in   Overcast
1:23 AM 41.0 °F 35.8 °F 39.0 °F 93% 29.57 in 5.0 mi NE 8.1 mph - N/A   Overcast
1:51 AM 42.1 °F 36.6 °F 39.9 °F 92% 29.55 in 0.5 mi ENE 9.2 mph - N/A   Overcast
2:51 AM 42.1 °F 39.2 °F 41.0 °F 96% 29.53 in 0.5 mi ENE 4.6 mph - N/A   Overcast
3:51 AM 43.0 °F 40.3 °F 42.1 °F 97% 29.51 in 0.5 mi West 4.6 mph - N/A   Overcast
3:59 AM 43.0 °F - 42.1 °F 97% 29.50 in 0.5 mi Calm Calm - N/A   Overcast
4:26 AM 43.0 °F 39.5 °F 42.1 °F 97% 29.51 in 0.5 mi SW 5.8 mph - 0.00 in Rain Light Rain
4:47 AM 42.8 °F 41.1 °F 42.8 °F 100% 29.50 in 1.0 mi SW 3.5 mph - 0.01 in Rain Light Rain
4:51 AM 43.0 °F - 42.1 °F 97% 29.51 in 1.0 mi Calm Calm - 0.01 in Rain Light Rain
5:22 AM 44.1 °F - 43.0 °F 96% 29.49 in 1.0 mi Calm Calm - 0.01 in Rain Light Rain
5:37 AM 45.0 °F - 44.1 °F 97% 29.48 in 1.0 mi Calm Calm - 0.02 in Rain Light Rain
5:51 AM 45.0 °F 43.5 °F 44.1 °F 97% 29.48 in 1.0 mi South 3.5 mph - 0.06 in Rain Light Rain
5:54 AM 45.0 °F 42.6 °F 44.1 °F 97% 29.47 in 2.5 mi South 4.6 mph - N/A Rain Light Rain
5:58 AM 45.0 °F 43.5 °F 45.0 °F 100% 29.47 in 3.0 mi South 3.5 mph - 0.01 in Rain Light Rain
6:11 AM 46.0 °F - 45.0 °F 96% 29.47 in 2.5 mi Calm Calm - 0.03 in Rain Light Rain
6:26 AM 46.0 °F 43.1 °F 44.1 °F 93% 29.48 in 2.5 mi WSW 5.8 mph - 0.06 in Rain Light Rain
6:45 AM 46.4 °F 41.9 °F 44.6 °F 93% 29.49 in 1.8 mi WSW 9.2 mph - 0.13 in Rain Light Rain
6:51 AM 46.0 °F 41.4 °F 45.0 °F 96% 29.50 in 2.0 mi West 9.2 mph - 0.15 in Rain Light Rain
6:58 AM 46.9 °F - 46.0 °F 97% 29.50 in 3.0 mi WSW 10.4 mph - 0.01 in Rain Light Rain
7:17 AM 48.0 °F - 46.0 °F 93% 29.50 in 5.0 mi West 15.0 mph - 0.05 in Rain Light Rain
7:19 AM 48.0 °F - 46.0 °F 93% 29.51 in 5.0 mi WSW 15.0 mph - 0.05 in Rain Light Rain
7:27 AM 46.9 °F - 46.0 °F 97% 29.52 in 7.0 mi WSW 16.1 mph - 0.06 in Rain Light Rain
7:51 AM 46.0 °F 39.6 °F 44.1 °F 93% 29.54 in 10.0 mi West 15.0 mph 23.0 mph 0.07 in Rain Light Rain
8:51 AM 43.0 °F 34.5 °F 39.9 °F 89% 29.58 in 10.0 mi WSW 19.6 mph - 0.00 in Rain Light Rain
9:51 AM 42.1 °F 33.6 °F 39.0 °F 89% 29.63 in 10.0 mi WSW 18.4 mph - 0.00 in   Overcast
10:51 AM 44.6 °F 37.4 °F 39.2 °F 81% 29.64 in 10.0 mi WSW 16.1 mph - N/A   Overcast
11:51 AM 45.0 °F 38.2 °F 41.0 °F 86% 29.68 in 10.0 mi WSW 15.0 mph - N/A   Overcast
12:51 PM 45.0 °F 38.5 °F 39.9 °F 82% 29.70 in 10.0 mi WSW 13.8 mph - N/A   Overcast
1:51 PM 45.0 °F 37.4 °F 37.9 °F 76% 29.71 in 10.0 mi WSW 18.4 mph 33.4 mph N/A   Overcast
2:51 PM 43.0 °F 35.1 °F 35.1 °F 74% 29.74 in 10.0 mi SW 17.3 mph - N/A   Overcast
3:51 PM 41.0 °F 31.9 °F 34.0 °F 76% 29.77 in 10.0 mi WSW 19.6 mph 26.5 mph N/A   Overcast
4:25 PM 42.1 °F 33.1 °F 34.0 °F 73% 29.76 in 10.0 mi WSW 20.7 mph 31.1 mph N/A   Overcast
4:41 PM 42.1 °F 33.9 °F 34.0 °F 73% 29.77 in 10.0 mi WSW 17.3 mph 27.6 mph N/A   Overcast
4:51 PM 42.1 °F 33.6 °F 33.1 °F 70% 29.79 in 10.0 mi West 18.4 mph 26.5 mph N/A   Overcast
5:14 PM 42.1 °F 34.2 °F 33.1 °F 70% 29.78 in 10.0 mi WSW 16.1 mph - N/A   Overcast
5:51 PM 41.0 °F 32.8 °F 32.0 °F 70% 29.80 in 10.0 mi WSW 16.1 mph 25.3 mph N/A   Overcast
6:51 PM 41.0 °F 34.3 °F 33.1 °F 73% 29.83 in 10.0 mi SW 11.5 mph - N/A   Overcast
7:51 PM 41.0 °F 35.8 °F 33.1 °F 73% 29.84 in 10.0 mi SW 8.1 mph - N/A   Overcast
8:04 PM 41.0 °F 35.2 °F 33.1 °F 73% 29.83 in 10.0 mi SSW 9.2 mph - N/A   Overcast
8:51 PM 41.0 °F 34.7 °F 34.0 °F 76% 29.85 in 10.0 mi SSW 10.4 mph - N/A   Overcast
9:51 PM 41.0 °F 34.7 °F 33.8 °F 76% 29.85 in 10.0 mi SW 10.4 mph - N/A   Overcast
10:51 PM 41.0 °F 35.2 °F 33.1 °F 73% 29.87 in 10.0 mi SW 9.2 mph - N/A   Overcast
11:51 PM 41.0 °F 34.3 °F 33.1 °F 73% 29.87 in 10.0 mi SW 11.5 mph - N/A   Overcast